Content
SEND FEEDBACK

Daily
Averages
Monthly
Summary
United States of America

POTTS JUNCTION, GUAM


Home > North America > United States > Guam
Elevation: 360 feet     Latitude: 13 33N     Longitude: 144 50E

WEATHER
 
SELECT A DAY
Number of Records: 213,081;   Date Range: 1/1/95 - 9/30/14
 
SHARE

PRINT THIS DATA

[ ← Previous Day ]
WEATHER ALMANAC - MARCH 31, 2013
[ Next Day → ]
[ °C ]   °F
Weather ElementAverageHighLow
Temperature83.9 °F89.1 °F (12:54 pm)81 °F (4:54 am)
Dewpoint73.1 °F73.9 °F (2:54 am)70 °F (1:54 pm)
Humidity70 %77 % (4:54 am)55 % (1:54 pm)
Barometer29.91 in29.96 in (8:54 am)29.85 in (3:54 pm)
Wind Speed11.6 mph16.1 mph (1:54 pm)
Wind Gust21.9 mph (1:54 pm)
Weather ElementAverage
Visibility10 mi
Wind DirectionE (88.1 °)

Weather ElementTotal
Precipitation---
Cooling Degree Days20.1 (Base 65)
Growing Degree Days35.1 (Base 50)
Averaged from 27 records on March 31, 2013
WEATHER CONDITIONS BREAKOUT
WIND DIRECTION BREAKOUT
WEATHER BY HOUR - MARCH 31, 2013
[ °C ]   °F
Local TimeTemperatureDewpointHumidityBarometerVisibilityWind DirectionWind SpeedGust SpeedPrecipitationEventsConditions
1:54 AM82.0 °F73.0 °F74 %29.89 in10.0 miEast (90°)11.5 mphClear
2:54 AM82.0 °F73.9 °F76 %29.88 in10.0 miEast (100°)11.5 mphScattered Clouds
3:54 AM82.0 °F73.0 °F74 %29.88 in10.0 miEast (90°)10.4 mphScattered Clouds
4:54 AM81.0 °F73.0 °F77 %29.88 in10.0 miEast (90°)11.5 mphClear
5:54 AM82.0 °F72.0 °F71 %29.90 in10.0 miEast (90°)10.4 mphMostly Cloudy
6:54 AM82.0 °F73.0 °F74 %29.92 in10.0 miEast (100°)9.2 mphMostly Cloudy
7:54 AM82.9 °F72.0 °F69 %29.95 in10.0 miEast (90°)8.1 mphMostly Cloudy
8:54 AM84.9 °F73.0 °F67 %29.96 in10.0 miEast (90°)11.5 mphPartly Cloudy
9:54 AM84.9 °F73.9 °F69 %29.96 in10.0 miEast (90°)15.0 mph19.6 mphOvercast
10:54 AM86.0 °F73.0 °F65 %29.95 in10.0 miEast (90°)12.7 mph18.4 mph0.00 inOvercast
11:54 AM84.9 °F72.0 °F65 %29.94 in10.0 miEast (80°)10.4 mph18.4 mph0.00 inMostly Cloudy
12:54 PM89.1 °F72.0 °F57 %29.90 in10.0 miEast (100°)11.5 mph18.4 mphScattered Clouds
1:54 PM88.0 °F70.0 °F55 %29.88 in10.0 miEast (80°)16.1 mph21.9 mphPartly Cloudy
2:54 PM87.1 °F72.0 °F61 %29.86 in10.0 miEast (80°)16.1 mph20.7 mphPartly Cloudy
3:54 PM87.1 °F73.9 °F65 %29.85 in10.0 miEast (100°)11.5 mph20.7 mphPartly Cloudy
4:54 PM84.9 °F73.9 °F69 %29.86 in10.0 miEast (100°)12.7 mphScattered Clouds
5:24 PM84.2 °F73.4 °F70 %29.89 in10.0 miEast (90°)12.7 mphMostly Cloudy
5:31 PM84.2 °F73.4 °F70 %29.89 in10.0 miEast (90°)11.5 mphPartly Cloudy
5:54 PM84.0 °F73.9 °F72 %29.87 in10.0 miEast (90°)10.4 mphClear
6:54 PM82.9 °F73.9 °F74 %29.88 in10.0 miEast (90°)9.2 mphPartly Cloudy
7:54 PM82.9 °F73.9 °F74 %29.89 in10.0 miEast (80°)9.2 mphPartly Cloudy
8:54 PM82.9 °F73.9 °F74 %29.91 in10.0 miEast (80°)8.1 mphPartly Cloudy
9:54 PM82.9 °F73.0 °F72 %29.93 in10.0 miEast (80°)12.7 mphPartly Cloudy
10:54 PM82.9 °F73.0 °F72 %29.93 in10.0 miEast (80°)12.7 mphMostly Cloudy
11:16 PM82.4 °F73.4 °F74 %29.95 in10.0 miEast (80°)12.7 mphMostly Cloudy
11:28 PM82.4 °F73.4 °F74 %29.95 in10.0 miEast (80°)13.8 mphScattered Clouds
11:54 PM82.0 °F73.9 °F76 %29.92 in10.0 miEast (80°)10.4 mphPartly Cloudy
Hourly data recorded from PGUM, located miles away from Potts Junction, Guam







STORIES FROM OUR PARTNERS